owner,sensor,date,latitude,longitude,vertical_datum,wind_speed,wind_to_direction,wind_speed_of_gust,qcFlag 
DISL,ioos:station:DISL:DISL:1,2009-02-01T00:00:00Z,30.2513,-88.0778,9.68,1.44,218.8,-9999.0,'1111122,1111122,1111122' 
DISL,ioos:station:DISL:DISL:1,2009-02-01T00:30:00Z,30.2513,-88.0778,9.68,1.38,214.7,-9999.0,'1111122,1111122,1111122' 
DISL,ioos:station:DISL:DISL:1,2009-02-01T01:00:00Z,30.2513,-88.0778,9.68,1.44,215.9,-9999.0,'1111122,1111122,1111122' 
DISL,ioos:station:DISL:DISL:1,2009-02-01T01:30:00Z,30.2513,-88.0778,9.68,1.38,217.1,-9999.0,'1111122,1111122,1111122' 
DISL,ioos:station:DISL:DISL:1,2009-02-01T02:00:00Z,30.2513,-88.0778,9.68,1.68,225.7,-9999.0,'1111122,1111122,1111122' 
DISL,ioos:station:DISL:DISL:1,2009-02-01T02:30:00Z,30.2513,-88.0778,9.68,1.81,233.3,-9999.0,'1111122,1111122,1111122' 
DISL,ioos:station:DISL:DISL:1,2009-02-01T03:00:00Z,30.2513,-88.0778,9.68,1.58,227.4,-9999.0,'1111122,1111122,1111122' 
DISL,ioos:station:DISL:DISL:1,2009-02-01T03:30:00Z,30.2513,-88.0778,9.68,1.37,227.7,-9999.0,'1111122,1111122,1111122' 
DISL,ioos:station:DISL:DISL:1,2009-02-01T04:00:00Z,30.2513,-88.0778,9.68,1.52,229.5,-9999.0,'1111122,1111122,1111122' 
DISL,ioos:station:DISL:DISL:1,2009-02-01T04:30:00Z,30.2513,-88.0778,9.68,1.55,233.5,-9999.0,'1111122,1111122,1111122' 
DISL,ioos:station:DISL:DISL:1,2009-02-01T05:00:00Z,30.2513,-88.0778,9.68,2.06,228.9,-9999.0,'1111122,1111122,1111122' 
DISL,ioos:station:DISL:DISL:1,2009-02-01T05:30:00Z,30.2513,-88.0778,9.68,1.74,239.0,-9999.0,'1111122,1111122,1111122' 
DISL,ioos:station:DISL:DISL:1,2009-02-01T06:00:00Z,30.2513,-88.0778,9.68,1.5,240.2,-9999.0,'1111122,1111122,1111122' 
DISL,ioos:station:DISL:DISL:1,2009-02-01T06:30:00Z,30.2513,-88.0778,9.68,1.87,238.2,-9999.0,'1111122,1111122,1111122' 
DISL,ioos:station:DISL:DISL:1,2009-02-01T07:00:00Z,30.2513,-88.0778,9.68,1.91,234.5,-9999.0,'1111122,1111122,1111122' 
DISL,ioos:station:DISL:DISL:1,2009-02-01T07:30:00Z,30.2513,-88.0778,9.68,2.16,227.0,-9999.0,'1111122,1111122,1111122' 
DISL,ioos:station:DISL:DISL:1,2009-02-01T08:00:00Z,30.2513,-88.0778,9.68,1.8,234.2,-9999.0,'1111122,1111122,1111122' 
DISL,ioos:station:DISL:DISL:1,2009-02-01T08:30:00Z,30.2513,-88.0778,9.68,1.74,235.3,-9999.0,'1111122,1111122,1111122' 
DISL,ioos:station:DISL:DISL:1,2009-02-01T09:00:00Z,30.2513,-88.0778,9.68,2.1,239.6,-9999.0,'1111122,1111122,1111122' 
DISL,ioos:station:DISL:DISL:1,2009-02-01T09:30:00Z,30.2513,-88.0778,9.68,2.24,238.0,-9999.0,'1111122,1111122,1111122' 
DISL,ioos:station:DISL:DISL:1,2009-02-01T10:00:00Z,30.2513,-88.0778,9.68,2.09,239.0,-9999.0,'1111122,1111122,1111122' 
DISL,ioos:station:DISL:DISL:1,2009-02-01T10:30:00Z,30.2513,-88.0778,9.68,1.76,252.3,-9999.0,'1111122,1111122,1111122' 
DISL,ioos:station:DISL:DISL:1,2009-02-01T11:00:00Z,30.2513,-88.0778,9.68,1.88,271.9,-9999.0,'1111122,1111122,1111122' 
DISL,ioos:station:DISL:DISL:1,2009-02-01T11:30:00Z,30.2513,-88.0778,9.68,1.43,245.7,-9999.0,'1111122,1111122,1111122' 
DISL,ioos:station:DISL:DISL:1,2009-02-01T12:00:00Z,30.2513,-88.0778,9.68,1.2,262.9,-9999.0,'1111122,1111122,1111122' 
DISL,ioos:station:DISL:DISL:1,2009-02-01T12:30:00Z,30.2513,-88.0778,9.68,0.52,349.7,-9999.0,'1111122,1111122,1111122' 
DISL,ioos:station:DISL:DISL:1,2009-02-01T13:00:00Z,30.2513,-88.0778,9.68,0.95,115.2,-9999.0,'1111122,1111122,1111122' 
DISL,ioos:station:DISL:DISL:1,2009-02-01T13:30:00Z,30.2513,-88.0778,9.68,1.24,105.9,-9999.0,'1111122,1111122,1111122' 
DISL,ioos:station:DISL:DISL:1,2009-02-01T14:00:00Z,30.2513,-88.0778,9.68,1.22,128.8,-9999.0,'1111122,1111122,1111122' 
DISL,ioos:station:DISL:DISL:1,2009-02-01T14:30:00Z,30.2513,-88.0778,9.68,2.08,105.3,-9999.0,'1111122,1111122,1111122' 
DISL,ioos:station:DISL:DISL:1,2009-02-01T15:00:00Z,30.2513,-88.0778,9.68,2.48,97.9,-9999.0,'1111122,1111122,1111122' 
DISL,ioos:station:DISL:DISL:1,2009-02-01T15:30:00Z,30.2513,-88.0778,9.68,2.06,113.2,-9999.0,'1111122,1111122,1111122' 
DISL,ioos:station:DISL:DISL:1,2009-02-01T16:00:00Z,30.2513,-88.0778,9.68,3.0,112.8,-9999.0,'1111122,1111122,1111122' 
DISL,ioos:station:DISL:DISL:1,2009-02-01T16:30:00Z,30.2513,-88.0778,9.68,2.78,119.1,-9999.0,'1111122,1111122,1111122' 
DISL,ioos:station:DISL:DISL:1,2009-02-01T17:00:00Z,30.2513,-88.0778,9.68,3.55,115.8,-9999.0,'1111122,1111122,1111122' 
DISL,ioos:station:DISL:DISL:1,2009-02-01T17:30:00Z,30.2513,-88.0778,9.68,3.91,122.0,-9999.0,'1111122,1111122,1111122' 
DISL,ioos:station:DISL:DISL:1,2009-02-01T18:00:00Z,30.2513,-88.0778,9.68,3.66,119.4,-9999.0,'1111122,1111122,1111122' 
DISL,ioos:station:DISL:DISL:1,2009-02-01T18:30:00Z,30.2513,-88.0778,9.68,3.67,117.9,-9999.0,'1111122,1111122,1111122' 
DISL,ioos:station:DISL:DISL:1,2009-02-01T19:00:00Z,30.2513,-88.0778,9.68,4.1,115.4,-9999.0,'1111122,1111122,1111122' 
DISL,ioos:station:DISL:DISL:1,2009-02-01T19:30:00Z,30.2513,-88.0778,9.68,4.96,112.1,-9999.0,'1111122,1111122,1111122' 
DISL,ioos:station:DISL:DISL:1,2009-02-01T20:00:00Z,30.2513,-88.0778,9.68,4.48,120.6,-9999.0,'1111122,1111122,1111122' 
DISL,ioos:station:DISL:DISL:1,2009-02-01T20:30:00Z,30.2513,-88.0778,9.68,4.77,115.1,-9999.0,'1111122,1111122,1111122' 
DISL,ioos:station:DISL:DISL:1,2009-02-01T21:00:00Z,30.2513,-88.0778,9.68,4.68,121.5,-9999.0,'1111122,1111122,1111122' 
DISL,ioos:station:DISL:DISL:1,2009-02-01T21:30:00Z,30.2513,-88.0778,9.68,4.92,117.3,-9999.0,'1111122,1111122,1111122' 
DISL,ioos:station:DISL:DISL:1,2009-02-01T22:00:00Z,30.2513,-88.0778,9.68,5.56,123.2,-9999.0,'1111122,1111122,1111122' 
DISL,ioos:station:DISL:DISL:1,2009-02-01T22:30:00Z,30.2513,-88.0778,9.68,4.91,127.8,-9999.0,'1111122,1111122,1111122' 
DISL,ioos:station:DISL:DISL:1,2009-02-01T23:00:00Z,30.2513,-88.0778,9.68,4.21,137.2,-9999.0,'1111122,1111122,1111122' 
DISL,ioos:station:DISL:DISL:1,2009-02-01T23:30:00Z,30.2513,-88.0778,9.68,3.89,129.8,-9999.0,'1111122,1111122,1111122' 
DISL,ioos:station:DISL:DISL:1,2009-02-02T00:00:00Z,30.2513,-88.0778,9.68,3.95,138.1,-9999.0,'1111122,1111122,1111122' 
DISL,ioos:station:DISL:DISL:1,2009-02-02T00:30:00Z,30.2513,-88.0778,9.68,4.17,127.5,-9999.0,'1111122,1111122,1111122' 
DISL,ioos:station:DISL:DISL:1,2009-02-02T01:00:00Z,30.2513,-88.0778,9.68,4.21,125.9,-9999.0,'1111122,1111122,1111122' 
DISL,ioos:station:DISL:DISL:1,2009-02-02T01:30:00Z,30.2513,-88.0778,9.68,4.38,124.6,-9999.0,'1111122,1111122,1111122' 
DISL,ioos:station:DISL:DISL:1,2009-02-02T02:00:00Z,30.2513,-88.0778,9.68,3.7,120.4,-9999.0,'1111122,1111122,1111122' 
DISL,ioos:station:DISL:DISL:1,2009-02-02T02:30:00Z,30.2513,-88.0778,9.68,3.96,135.2,-9999.0,'1111122,1111122,1111122' 
DISL,ioos:station:DISL:DISL:1,2009-02-02T03:00:00Z,30.2513,-88.0778,9.68,3.78,133.5,-9999.0,'1111122,1111122,1111122' 
DISL,ioos:station:DISL:DISL:1,2009-02-02T03:30:00Z,30.2513,-88.0778,9.68,3.9,137.2,-9999.0,'1111122,1111122,1111122' 
DISL,ioos:station:DISL:DISL:1,2009-02-02T04:00:00Z,30.2513,-88.0778,9.68,4.22,139.8,-9999.0,'1111122,1111122,1111122' 
DISL,ioos:station:DISL:DISL:1,2009-02-02T04:30:00Z,30.2513,-88.0778,9.68,3.96,139.0,-9999.0,'1111122,1111122,1111122' 
DISL,ioos:station:DISL:DISL:1,2009-02-02T05:00:00Z,30.2513,-88.0778,9.68,3.77,149.1,-9999.0,'1111122,1111122,1111122' 
DISL,ioos:station:DISL:DISL:1,2009-02-02T05:30:00Z,30.2513,-88.0778,9.68,4.18,147.6,-9999.0,'1111122,1111122,1111122' 
DISL,ioos:station:DISL:DISL:1,2009-02-02T06:00:00Z,30.2513,-88.0778,9.68,5.4,141.3,-9999.0,'1111122,1111122,1111122' 
DISL,ioos:station:DISL:DISL:1,2009-02-02T06:30:00Z,30.2513,-88.0778,9.68,5.35,146.7,-9999.0,'1111122,1111122,1111122' 
DISL,ioos:station:DISL:DISL:1,2009-02-02T07:00:00Z,30.2513,-88.0778,9.68,7.15,158.0,-9999.0,'1111122,1111122,1111122' 
DISL,ioos:station:DISL:DISL:1,2009-02-02T07:30:00Z,30.2513,-88.0778,9.68,6.06,160.7,-9999.0,'1111122,1111122,1111122' 
DISL,ioos:station:DISL:DISL:1,2009-02-02T08:00:00Z,30.2513,-88.0778,9.68,5.94,155.4,-9999.0,'1111122,1111122,1111122' 
DISL,ioos:station:DISL:DISL:1,2009-02-02T08:30:00Z,30.2513,-88.0778,9.68,5.68,152.9,-9999.0,'1111122,1111122,1111122' 
DISL,ioos:station:DISL:DISL:1,2009-02-02T09:00:00Z,30.2513,-88.0778,9.68,4.56,148.6,-9999.0,'1111122,1111122,1111122' 
DISL,ioos:station:DISL:DISL:1,2009-02-02T09:30:00Z,30.2513,-88.0778,9.68,4.91,148.2,-9999.0,'1111122,1111122,1111122' 
DISL,ioos:station:DISL:DISL:1,2009-02-02T10:00:00Z,30.2513,-88.0778,9.68,5.99,141.2,-9999.0,'1111122,1111122,1111122' 
DISL,ioos:station:DISL:DISL:1,2009-02-02T10:30:00Z,30.2513,-88.0778,9.68,5.06,147.6,-9999.0,'1111122,1111122,1111122' 
DISL,ioos:station:DISL:DISL:1,2009-02-02T11:00:00Z,30.2513,-88.0778,9.68,5.75,142.6,-9999.0,'1111122,1111122,1111122' 
DISL,ioos:station:DISL:DISL:1,2009-02-02T11:30:00Z,30.2513,-88.0778,9.68,6.47,146.6,-9999.0,'1111122,1111122,1111122' 
DISL,ioos:station:DISL:DISL:1,2009-02-02T12:00:00Z,30.2513,-88.0778,9.68,5.1,148.5,-9999.0,'1111122,1111122,1111122' 
DISL,ioos:station:DISL:DISL:1,2009-02-02T12:30:00Z,30.2513,-88.0778,9.68,5.25,148.4,-9999.0,'1111122,1111122,1111122' 
DISL,ioos:station:DISL:DISL:1,2009-02-02T13:00:00Z,30.2513,-88.0778,9.68,4.06,152.4,-9999.0,'1111122,1111122,1111122' 
DISL,ioos:station:DISL:DISL:1,2009-02-02T13:30:00Z,30.2513,-88.0778,9.68,3.51,152.1,-9999.0,'1111122,1111122,1111122' 
DISL,ioos:station:DISL:DISL:1,2009-02-02T14:00:00Z,30.2513,-88.0778,9.68,3.4,151.7,-9999.0,'1111122,1111122,1111122' 
DISL,ioos:station:DISL:DISL:1,2009-02-02T14:30:00Z,30.2513,-88.0778,9.68,3.02,151.7,-9999.0,'1111122,1111122,1111122' 
DISL,ioos:station:DISL:DISL:1,2009-02-02T15:00:00Z,30.2513,-88.0778,9.68,2.26,143.5,-9999.0,'1111122,1111122,1111122' 
DISL,ioos:station:DISL:DISL:1,2009-02-02T15:30:00Z,30.2513,-88.0778,9.68,1.99,158.0,-9999.0,'1111122,1111122,1111122' 
DISL,ioos:station:DISL:DISL:1,2009-02-02T16:00:00Z,30.2513,-88.0778,9.68,2.26,174.1,-9999.0,'1111122,1111122,1111122' 
DISL,ioos:station:DISL:DISL:1,2009-02-02T16:30:00Z,30.2513,-88.0778,9.68,2.4,198.5,-9999.0,'1111122,1111122,1111122' 
DISL,ioos:station:DISL:DISL:1,2009-02-02T17:00:00Z,30.2513,-88.0778,9.68,3.66,218.0,-9999.0,'1111122,1111122,1111122' 
DISL,ioos:station:DISL:DISL:1,2009-02-02T17:30:00Z,30.2513,-88.0778,9.68,7.16,327.3,-9999.0,'1111122,1111122,1111122' 
DISL,ioos:station:DISL:DISL:1,2009-02-02T18:00:00Z,30.2513,-88.0778,9.68,4.34,332.7,-9999.0,'1111122,1111122,1111122' 
DISL,ioos:station:DISL:DISL:1,2009-02-02T18:30:00Z,30.2513,-88.0778,9.68,4.71,302.8,-9999.0,'1111122,1111122,1111122' 
DISL,ioos:station:DISL:DISL:1,2009-02-02T19:00:00Z,30.2513,-88.0778,9.68,7.02,311.0,-9999.0,'1111122,1111122,1111122' 
DISL,ioos:station:DISL:DISL:1,2009-02-02T19:30:00Z,30.2513,-88.0778,9.68,7.46,352.4,-9999.0,'1111122,1111122,1111122' 
DISL,ioos:station:DISL:DISL:1,2009-02-02T20:00:00Z,30.2513,-88.0778,9.68,7.56,0.412,-9999.0,'1111122,1111122,1111122' 
DISL,ioos:station:DISL:DISL:1,2009-02-02T20:30:00Z,30.2513,-88.0778,9.68,8.42,2.277,-9999.0,'1111122,1111122,1111122' 
DISL,ioos:station:DISL:DISL:1,2009-02-02T21:00:00Z,30.2513,-88.0778,9.68,10.32,346.0,-9999.0,'1111122,1111122,1111122' 
DISL,ioos:station:DISL:DISL:1,2009-02-02T21:30:00Z,30.2513,-88.0778,9.68,9.47,344.4,-9999.0,'1111122,1111122,1111122' 
DISL,ioos:station:DISL:DISL:1,2009-02-02T22:00:00Z,30.2513,-88.0778,9.68,10.15,329.2,-9999.0,'1111122,1111122,1111122' 
DISL,ioos:station:DISL:DISL:1,2009-02-02T22:30:00Z,30.2513,-88.0778,9.68,11.34,346.0,-9999.0,'1111122,1111122,1111122' 
DISL,ioos:station:DISL:DISL:1,2009-02-02T23:00:00Z,30.2513,-88.0778,9.68,12.93,343.2,-9999.0,'1111122,1111122,1111122' 
DISL,ioos:station:DISL:DISL:1,2009-02-02T23:30:00Z,30.2513,-88.0778,9.68,12.76,345.5,-9999.0,'1111122,1111122,1111122' 
DISL,ioos:station:DISL:DISL:1,2009-02-03T00:00:00Z,30.2513,-88.0778,9.68,12.37,349.9,-9999.0,'1111122,1111122,1111122' 
DISL,ioos:station:DISL:DISL:1,2009-02-03T00:30:00Z,30.2513,-88.0778,9.68,11.4,345.3,-9999.0,'1111122,1111122,1111122' 
DISL,ioos:station:DISL:DISL:1,2009-02-03T01:00:00Z,30.2513,-88.0778,9.68,9.99,344.1,-9999.0,'1111122,1111122,1111122' 
DISL,ioos:station:DISL:DISL:1,2009-02-03T01:30:00Z,30.2513,-88.0778,9.68,10.16,338.1,-9999.0,'1111122,1111122,1111122' 
DISL,ioos:station:DISL:DISL:1,2009-02-03T02:00:00Z,30.2513,-88.0778,9.68,11.15,343.1,-9999.0,'1111122,1111122,1111122' 
DISL,ioos:station:DISL:DISL:1,2009-02-03T02:30:00Z,30.2513,-88.0778,9.68,10.39,337.8,-9999.0,'1111122,1111122,1111122' 
DISL,ioos:station:DISL:DISL:1,2009-02-03T03:00:00Z,30.2513,-88.0778,9.68,11.25,339.7,-9999.0,'1111122,1111122,1111122' 
DISL,ioos:station:DISL:DISL:1,2009-02-03T03:30:00Z,30.2513,-88.0778,9.68,10.83,346.6,-9999.0,'1111122,1111122,1111122' 
DISL,ioos:station:DISL:DISL:1,2009-02-03T04:00:00Z,30.2513,-88.0778,9.68,9.83,341.4,-9999.0,'1111122,1111122,1111122' 
DISL,ioos:station:DISL:DISL:1,2009-02-03T04:30:00Z,30.2513,-88.0778,9.68,9.41,341.9,-9999.0,'1111122,1111122,1111122' 
DISL,ioos:station:DISL:DISL:1,2009-02-03T05:00:00Z,30.2513,-88.0778,9.68,9.42,342.7,-9999.0,'1111122,1111122,1111122' 
DISL,ioos:station:DISL:DISL:1,2009-02-03T05:30:00Z,30.2513,-88.0778,9.68,9.43,336.6,-9999.0,'1111122,1111122,1111122' 
DISL,ioos:station:DISL:DISL:1,2009-02-03T06:00:00Z,30.2513,-88.0778,9.68,8.94,338.0,-9999.0,'1111122,1111122,1111122' 
DISL,ioos:station:DISL:DISL:1,2009-02-03T06:30:00Z,30.2513,-88.0778,9.68,8.54,341.0,-9999.0,'1111122,1111122,1111122' 
DISL,ioos:station:DISL:DISL:1,2009-02-03T07:00:00Z,30.2513,-88.0778,9.68,7.68,332.1,-9999.0,'1111122,1111122,1111122' 
DISL,ioos:station:DISL:DISL:1,2009-02-03T07:30:00Z,30.2513,-88.0778,9.68,7.78,337.7,-9999.0,'1111122,1111122,1111122' 
DISL,ioos:station:DISL:DISL:1,2009-02-03T08:00:00Z,30.2513,-88.0778,9.68,7.44,327.6,-9999.0,'1111122,1111122,1111122' 
DISL,ioos:station:DISL:DISL:1,2009-02-03T08:30:00Z,30.2513,-88.0778,9.68,7.86,329.0,-9999.0,'1111122,1111122,1111122' 
DISL,ioos:station:DISL:DISL:1,2009-02-03T09:00:00Z,30.2513,-88.0778,9.68,7.6,335.1,-9999.0,'1111122,1111122,1111122' 
DISL,ioos:station:DISL:DISL:1,2009-02-03T09:30:00Z,30.2513,-88.0778,9.68,7.52,342.4,-9999.0,'1111122,1111122,1111122' 
DISL,ioos:station:DISL:DISL:1,2009-02-03T10:00:00Z,30.2513,-88.0778,9.68,7.38,4.679,-9999.0,'1111122,1111122,1111122' 
DISL,ioos:station:DISL:DISL:1,2009-02-03T10:30:00Z,30.2513,-88.0778,9.68,7.65,6.951,-9999.0,'1111122,1111122,1111122' 
DISL,ioos:station:DISL:DISL:1,2009-02-03T11:00:00Z,30.2513,-88.0778,9.68,7.55,358.6,-9999.0,'1111122,1111122,1111122' 
DISL,ioos:station:DISL:DISL:1,2009-02-03T11:30:00Z,30.2513,-88.0778,9.68,6.83,358.2,-9999.0,'1111122,1111122,1111122' 
DISL,ioos:station:DISL:DISL:1,2009-02-03T12:00:00Z,30.2513,-88.0778,9.68,6.07,355.9,-9999.0,'1111122,1111122,1111122' 
DISL,ioos:station:DISL:DISL:1,2009-02-03T12:30:00Z,30.2513,-88.0778,9.68,5.7,1.536,-9999.0,'1111122,1111122,1111122' 
DISL,ioos:station:DISL:DISL:1,2009-02-03T13:00:00Z,30.2513,-88.0778,9.68,4.3,345.6,-9999.0,'1111122,1111122,1111122' 
DISL,ioos:station:DISL:DISL:1,2009-02-03T13:30:00Z,30.2513,-88.0778,9.68,3.84,342.3,-9999.0,'1111122,1111122,1111122' 
DISL,ioos:station:DISL:DISL:1,2009-02-03T14:00:00Z,30.2513,-88.0778,9.68,3.48,344.7,-9999.0,'1111122,1111122,1111122' 
DISL,ioos:station:DISL:DISL:1,2009-02-03T14:30:00Z,30.2513,-88.0778,9.68,2.47,350.5,-9999.0,'1111122,1111122,1111122' 
DISL,ioos:station:DISL:DISL:1,2009-02-03T15:00:00Z,30.2513,-88.0778,9.68,2.61,3.855,-9999.0,'1111122,1111122,1111122' 
DISL,ioos:station:DISL:DISL:1,2009-02-03T15:30:00Z,30.2513,-88.0778,9.68,2.26,355.5,-9999.0,'1111122,1111122,1111122' 
DISL,ioos:station:DISL:DISL:1,2009-02-03T16:00:00Z,30.2513,-88.0778,9.68,2.06,50.61,-9999.0,'1111122,1111122,1111122' 
DISL,ioos:station:DISL:DISL:1,2009-02-03T16:30:00Z,30.2513,-88.0778,9.68,0.71,46.31,-9999.0,'1111122,1111122,1111122' 
DISL,ioos:station:DISL:DISL:1,2009-02-03T17:00:00Z,30.2513,-88.0778,9.68,0.55,14.11,-9999.0,'1111122,1111122,1111122' 
DISL,ioos:station:DISL:DISL:1,2009-02-03T17:30:00Z,30.2513,-88.0778,9.68,2.11,177.0,-9999.0,'1111122,1111122,1111122' 
DISL,ioos:station:DISL:DISL:1,2009-02-03T18:00:00Z,30.2513,-88.0778,9.68,2.88,209.8,-9999.0,'1111122,1111122,1111122' 
DISL,ioos:station:DISL:DISL:1,2009-02-03T18:30:00Z,30.2513,-88.0778,9.68,3.22,207.1,-9999.0,'1111122,1111122,1111122' 
DISL,ioos:station:DISL:DISL:1,2009-02-03T19:00:00Z,30.2513,-88.0778,9.68,2.62,231.1,-9999.0,'1111122,1111122,1111122' 
DISL,ioos:station:DISL:DISL:1,2009-02-03T19:30:00Z,30.2513,-88.0778,9.68,3.42,226.5,-9999.0,'1111122,1111122,1111122' 
DISL,ioos:station:DISL:DISL:1,2009-02-03T20:00:00Z,30.2513,-88.0778,9.68,3.67,220.8,-9999.0,'1111122,1111122,1111122' 
DISL,ioos:station:DISL:DISL:1,2009-02-03T20:30:00Z,30.2513,-88.0778,9.68,3.64,223.6,-9999.0,'1111122,1111122,1111122' 
DISL,ioos:station:DISL:DISL:1,2009-02-03T21:00:00Z,30.2513,-88.0778,9.68,4.46,243.0,-9999.0,'1111122,1111122,1111122' 
DISL,ioos:station:DISL:DISL:1,2009-02-03T21:30:00Z,30.2513,-88.0778,9.68,3.81,251.5,-9999.0,'1111122,1111122,1111122' 
DISL,ioos:station:DISL:DISL:1,2009-02-03T22:00:00Z,30.2513,-88.0778,9.68,4.76,246.1,-9999.0,'1111122,1111122,1111122' 
DISL,ioos:station:DISL:DISL:1,2009-02-03T22:30:00Z,30.2513,-88.0778,9.68,4.7,237.2,-9999.0,'1111122,1111122,1111122' 
DISL,ioos:station:DISL:DISL:1,2009-02-03T23:00:00Z,30.2513,-88.0778,9.68,4.94,251.4,-9999.0,'1111122,1111122,1111122' 
DISL,ioos:station:DISL:DISL:1,2009-02-03T23:30:00Z,30.2513,-88.0778,9.68,4.3,253.5,-9999.0,'1111122,1111122,1111122' 
DISL,ioos:station:DISL:DISL:1,2009-02-04T00:00:00Z,30.2513,-88.0778,9.68,4.58,238.1,-9999.0,'1111122,1111122,1111122' 
DISL,ioos:station:DISL:DISL:1,2009-02-04T00:30:00Z,30.2513,-88.0778,9.68,4.62,245.6,-9999.0,'1111122,1111122,1111122' 
DISL,ioos:station:DISL:DISL:1,2009-02-04T01:00:00Z,30.2513,-88.0778,9.68,5.22,252.5,-9999.0,'1111122,1111122,1111122' 
DISL,ioos:station:DISL:DISL:1,2009-02-04T01:30:00Z,30.2513,-88.0778,9.68,5.74,265.2,-9999.0,'1111122,1111122,1111122' 
DISL,ioos:station:DISL:DISL:1,2009-02-04T02:00:00Z,30.2513,-88.0778,9.68,6.46,267.8,-9999.0,'1111122,1111122,1111122' 
DISL,ioos:station:DISL:DISL:1,2009-02-04T02:30:00Z,30.2513,-88.0778,9.68,7.51,287.1,-9999.0,'1111122,1111122,1111122' 
DISL,ioos:station:DISL:DISL:1,2009-02-04T03:00:00Z,30.2513,-88.0778,9.68,8.48,303.6,-9999.0,'1111122,1111122,1111122' 
DISL,ioos:station:DISL:DISL:1,2009-02-04T03:30:00Z,30.2513,-88.0778,9.68,7.54,314.2,-9999.0,'1111122,1111122,1111122' 
DISL,ioos:station:DISL:DISL:1,2009-02-04T04:00:00Z,30.2513,-88.0778,9.68,8.1,332.4,-9999.0,'1111122,1111122,1111122' 
DISL,ioos:station:DISL:DISL:1,2009-02-04T04:30:00Z,30.2513,-88.0778,9.68,9.46,332.2,-9999.0,'1111122,1111122,1111122' 
DISL,ioos:station:DISL:DISL:1,2009-02-04T05:00:00Z,30.2513,-88.0778,9.68,9.06,332.0,-9999.0,'1111122,1111122,1111122' 
DISL,ioos:station:DISL:DISL:1,2009-02-04T05:30:00Z,30.2513,-88.0778,9.68,9.8,337.4,-9999.0,'1111122,1111122,1111122' 
DISL,ioos:station:DISL:DISL:1,2009-02-04T06:00:00Z,30.2513,-88.0778,9.68,9.31,336.4,-9999.0,'1111122,1111122,1111122' 
DISL,ioos:station:DISL:DISL:1,2009-02-04T06:30:00Z,30.2513,-88.0778,9.68,10.11,338.1,-9999.0,'1111122,1111122,1111122' 
DISL,ioos:station:DISL:DISL:1,2009-02-04T07:00:00Z,30.2513,-88.0778,9.68,9.67,340.4,-9999.0,'1111122,1111122,1111122' 
DISL,ioos:station:DISL:DISL:1,2009-02-04T07:30:00Z,30.2513,-88.0778,9.68,11.27,347.2,-9999.0,'1111122,1111122,1111122' 
DISL,ioos:station:DISL:DISL:1,2009-02-04T08:00:00Z,30.2513,-88.0778,9.68,11.46,358.9,-9999.0,'1111122,1111122,1111122' 
DISL,ioos:station:DISL:DISL:1,2009-02-04T08:30:00Z,30.2513,-88.0778,9.68,10.66,348.1,-9999.0,'1111122,1111122,1111122' 
DISL,ioos:station:DISL:DISL:1,2009-02-04T09:00:00Z,30.2513,-88.0778,9.68,11.42,349.9,-9999.0,'1111122,1111122,1111122' 
DISL,ioos:station:DISL:DISL:1,2009-02-04T09:30:00Z,30.2513,-88.0778,9.68,10.92,346.7,-9999.0,'1111122,1111122,1111122' 
DISL,ioos:station:DISL:DISL:1,2009-02-04T10:00:00Z,30.2513,-88.0778,9.68,11.01,350.5,-9999.0,'1111122,1111122,1111122' 
DISL,ioos:station:DISL:DISL:1,2009-02-04T10:30:00Z,30.2513,-88.0778,9.68,10.31,349.6,-9999.0,'1111122,1111122,1111122' 
DISL,ioos:station:DISL:DISL:1,2009-02-04T11:00:00Z,30.2513,-88.0778,9.68,9.75,352.9,-9999.0,'1111122,1111122,1111122' 
DISL,ioos:station:DISL:DISL:1,2009-02-04T11:30:00Z,30.2513,-88.0778,9.68,10.11,351.5,-9999.0,'1111122,1111122,1111122' 
DISL,ioos:station:DISL:DISL:1,2009-02-04T12:00:00Z,30.2513,-88.0778,9.68,10.41,358.9,-9999.0,'1111122,1111122,1111122' 
DISL,ioos:station:DISL:DISL:1,2009-02-04T12:30:00Z,30.2513,-88.0778,9.68,10.33,8.18,-9999.0,'1111122,1111122,1111122' 
DISL,ioos:station:DISL:DISL:1,2009-02-04T13:00:00Z,30.2513,-88.0778,9.68,11.0,14.65,-9999.0,'1111122,1111122,1111122' 
DISL,ioos:station:DISL:DISL:1,2009-02-04T13:30:00Z,30.2513,-88.0778,9.68,11.12,8.83,-9999.0,'1111122,1111122,1111122' 
DISL,ioos:station:DISL:DISL:1,2009-02-04T14:00:00Z,30.2513,-88.0778,9.68,10.21,10.05,-9999.0,'1111122,1111122,1111122' 
DISL,ioos:station:DISL:DISL:1,2009-02-04T14:30:00Z,30.2513,-88.0778,9.68,9.2,8.62,-9999.0,'1111122,1111122,1111122' 
DISL,ioos:station:DISL:DISL:1,2009-02-04T15:00:00Z,30.2513,-88.0778,9.68,8.04,2.608,-9999.0,'1111122,1111122,1111122' 
DISL,ioos:station:DISL:DISL:1,2009-02-04T15:30:00Z,30.2513,-88.0778,9.68,8.12,355.5,-9999.0,'1111122,1111122,1111122' 
DISL,ioos:station:DISL:DISL:1,2009-02-04T16:00:00Z,30.2513,-88.0778,9.68,7.59,0.74,-9999.0,'1111122,1111122,1111122' 
DISL,ioos:station:DISL:DISL:1,2009-02-04T16:30:00Z,30.2513,-88.0778,9.68,7.77,2.703,-9999.0,'1111122,1111122,1111122' 
DISL,ioos:station:DISL:DISL:1,2009-02-04T17:00:00Z,30.2513,-88.0778,9.68,7.97,358.7,-9999.0,'1111122,1111122,1111122' 
DISL,ioos:station:DISL:DISL:1,2009-02-04T17:30:00Z,30.2513,-88.0778,9.68,7.91,4.904,-9999.0,'1111122,1111122,1111122' 
DISL,ioos:station:DISL:DISL:1,2009-02-04T18:00:00Z,30.2513,-88.0778,9.68,7.76,12.15,-9999.0,'1111122,1111122,1111122' 
DISL,ioos:station:DISL:DISL:1,2009-02-04T18:30:00Z,30.2513,-88.0778,9.68,6.19,12.09,-9999.0,'1111122,1111122,1111122' 
DISL,ioos:station:DISL:DISL:1,2009-02-04T19:00:00Z,30.2513,-88.0778,9.68,5.33,13.18,-9999.0,'1111122,1111122,1111122' 
DISL,ioos:station:DISL:DISL:1,2009-02-04T19:30:00Z,30.2513,-88.0778,9.68,5.41,7.53,-9999.0,'1111122,1111122,1111122' 
DISL,ioos:station:DISL:DISL:1,2009-02-04T20:00:00Z,30.2513,-88.0778,9.68,4.88,12.23,-9999.0,'1111122,1111122,1111122' 
DISL,ioos:station:DISL:DISL:1,2009-02-04T20:30:00Z,30.2513,-88.0778,9.68,5.09,18.59,-9999.0,'1111122,1111122,1111122' 
DISL,ioos:station:DISL:DISL:1,2009-02-04T21:00:00Z,30.2513,-88.0778,9.68,5.41,19.12,-9999.0,'1111122,1111122,1111122' 
DISL,ioos:station:DISL:DISL:1,2009-02-04T21:30:00Z,30.2513,-88.0778,9.68,4.94,12.7,-9999.0,'1111122,1111122,1111122' 
DISL,ioos:station:DISL:DISL:1,2009-02-04T22:00:00Z,30.2513,-88.0778,9.68,5.53,325.9,-9999.0,'1111122,1111122,1111122' 
DISL,ioos:station:DISL:DISL:1,2009-02-04T22:30:00Z,30.2513,-88.0778,9.68,5.33,321.3,-9999.0,'1111122,1111122,1111122' 
DISL,ioos:station:DISL:DISL:1,2009-02-04T23:00:00Z,30.2513,-88.0778,9.68,6.07,311.3,-9999.0,'1111122,1111122,1111122' 
DISL,ioos:station:DISL:DISL:1,2009-02-04T23:30:00Z,30.2513,-88.0778,9.68,6.03,325.1,-9999.0,'1111122,1111122,1111122' 
DISL,ioos:station:DISL:DISL:1,2009-02-05T00:00:00Z,30.2513,-88.0778,9.68,6.6,325.9,-9999.0,'1111122,1111122,1111122' 
DISL,ioos:station:DISL:DISL:1,2009-02-05T00:30:00Z,30.2513,-88.0778,9.68,6.76,333.1,-9999.0,'1111122,1111122,1111122' 
DISL,ioos:station:DISL:DISL:1,2009-02-05T01:00:00Z,30.2513,-88.0778,9.68,6.42,339.1,-9999.0,'1111122,1111122,1111122' 
DISL,ioos:station:DISL:DISL:1,2009-02-05T01:30:00Z,30.2513,-88.0778,9.68,7.1,341.8,-9999.0,'1111122,1111122,1111122' 
DISL,ioos:station:DISL:DISL:1,2009-02-05T02:00:00Z,30.2513,-88.0778,9.68,6.09,345.9,-9999.0,'1111122,1111122,1111122' 
DISL,ioos:station:DISL:DISL:1,2009-02-05T02:30:00Z,30.2513,-88.0778,9.68,6.06,346.2,-9999.0,'1111122,1111122,1111122' 
DISL,ioos:station:DISL:DISL:1,2009-02-05T03:00:00Z,30.2513,-88.0778,9.68,6.64,358.3,-9999.0,'1111122,1111122,1111122' 
DISL,ioos:station:DISL:DISL:1,2009-02-05T03:30:00Z,30.2513,-88.0778,9.68,5.74,355.1,-9999.0,'1111122,1111122,1111122' 